Location: Boiro
(42.6475°N, 8.8834°W)
Time: 03:45:33
(UTC+01:00)

Vanguard 1 Rocket - Pass Details

Date: 11 December 2021
Orbit: 651 x 4224 km, 34.3° (Epoch: 21 January)

Event Time Altitude Azimuth Distance (km) Brightness Sun altitude
Rises 10:55:40 0° 269° (W) 7,175 11.6 15.4°
Reaches altitude 10° 11:06:28 10° 242° (WSW) 6,931 11.9 16.6°
Maximum altitude 11:12:26 12° 227° (SW) 7,071 12.1 17.2°
Drops below altitude 10° 11:18:48 10° 213° (SSW) 7,377 12.4 17.8°
Sets 11:32:22 0° 186° (S) 8,346 13.2 19.0°
